Regional Weather Roundup
Issued by NWS Green Bay, WI

Home | Current Version | Previous Version | Graphics & Text | Print | Product List | Glossary Off
Versions: 1 2 3 4 5 6 7 8 9 10 11 12 13 14 15 16 17 18 19 20 21 22 23 24 25 26 27 28 29 30 31 32 33 34 35 36 37 38 39 40 41 42 43 44 45 46 47 48 49 50

000
ASUS43 KGRB 232111
RWRGRB

NORTH-CENTRAL AND NORTHEAST WISCONSIN REGIONAL WEATHER ROUNDUP
NATIONAL WEATHER SERVICE GREEN BAY WI
400 PM CDT TUE AUG 23 2016

WIZ005-009-010>012-018-019-232200-
NORTH CENTRAL WISCONSIN

CITY           SKY/WX    TMP DP  RH WIND       PRES   REMARKS
IRONWOOD       SUNNY     83  63  50 S15G23    29.94S
MANITOWISH WTR MOSUNNY   79  63  57 S17       30.00S
ARBOR VITAE    MOSUNNY   80  64  57 S17G25    30.01S
EAGLE RIVER    MOSUNNY   78  59  52 S12G17    30.02S
LAND O LAKES   CLOUDY    81  60  48 SW8G21    30.03R
RHINELANDER    MOSUNNY   80  65  59 S16G23    30.04S
PHILLIPS       MOSUNNY   80  65  60 S15G23    29.99F
ANTIGO         MOSUNNY   76  62  62 S9        30.06F
TOMAHAWK       SUNNY     77  64  65 S5        30.04S
MERRILL        MOSUNNY   79  65  61 S10G17    30.04F
$$

WIZ013-073-232200-
NORTHEAST WISCONSIN

CITY           SKY/WX    TMP DP  RH WIND       PRES   REMARKS
IRON MOUNTAIN  SUNNY     81  61  50 S14       30.02F
MARINETTE      MOSUNNY  N/A N/A N/A MISG      30.05F
OCONTO         PTSUNNY   81  62  53 S10G16    30.05S
$$

WIZ017-030-035>037-045-232200-
CENTRAL WISCONSIN

CITY           SKY/WX    TMP DP  RH WIND       PRES   REMARKS
MEDFORD        MOSUNNY   78  64  62 S14G21    30.03S
WAUSAU         SUNNY     80  61  52 S17G25    30.03F
MOSINEE        MOSUNNY   79  63  57 S13G20    30.06F
MARSHFIELD     MOSUNNY   82  62  50 S17G25    30.03F
WISC RAPIDS    MOSUNNY   81  64  56 SW13G21   30.06F
STEVENS POINT  MOSUNNY   79  61  53 S10G16    30.06R
WAUPACA        MOSUNNY   83  62  49 S12G18    30.06S
SHAWANO        MOSUNNY   80  63  55 S6        30.06S
CLINTONVILLE   MOSUNNY   81  59  47 SW15G23   30.06S
WAUTOMA        MOSUNNY   80  62  54 S15       30.06F
$$

WIZ038-039-048-051-232200-
FOX VALLEY

CITY           SKY/WX    TMP DP  RH WIND       PRES   REMARKS
NWS GREEN BAY  MOSUNNY   79  64  60 S15       30.07F
APPLETON       PTSUNNY   81  59  47 S16G23    30.07F
OSHKOSH        SUNNY     80  62  54 S14G24    30.07F
FOND DU LAC    MOSUNNY   79  63  57 S16       30.09S
$$

WIZ022-050-052-232200-
EAST CENTRAL WISCONSIN

CITY           SKY/WX    TMP DP  RH WIND       PRES   REMARKS
EPHRAIM        FAIR      75  64  67 S10G20    30.06F
WASHINGTON ISL NOT AVBL
STURGEON BAY   MOSUNNY   75  64  68 S14G24    30.08S
MANITOWOC      MOSUNNY   75  64  68 S21       30.10S
SHEBOYGAN      SUNNY     78  64  61 S12       30.10F
$$

LMZ563-521-522-541>543-232200-
LAKESHORE

STATION/POSITION TIME  TEMP    WIND        PRES    VSBY  WAVE
                       AIR SEA DIR/SP/G                  HT/PER
                 (UTC) (F)     (DEG/KT/KT) (MB)    (MI)  (FT/S)
KEWAUNEE LKSHORE 2000   66     180/ 13/ 15 1018.9F
NORTHPORT PIER   2000   74     170/  8/ 14 1017.9F
N MID LAKE BUOY  2050   72 71  200/ 19/ 25 1017.4F         6/ 6
S GREEN BAY BUOY 2000   76 74  190/ 12/ 16 1017.7F
SISTER BAY LKSHO 2007   79     190/ 17/ 20   N/A
CHAMBERS ISLAND  2000   78     170/  5/ 13 1017.9F
MENOMINEE LKSHOR 2000   78     190/ 11/ 18 1017.0F
$$




USA.gov is the U.S. government's official web portal to all federal, state and local government web resources and services.